| time (UTC) | temp C | wind direction | speed KPH | gust KPH | rain 1hr cm | rain 24hr cm | rain mn cm | humidity % | barometer mb |
| 20260507013042 | 7 | 0 | 0.0 | 0.0 | 0.00 | 0.84 | 0.00 | 98 | 1014.9 |
| 20260507011047 | 7 | 0 | 0.0 | 0.0 | 0.00 | 0.86 | 0.00 | 98 | 1014.9 |
| 20260507010048 | 7 | 0 | 0.0 | 0.0 | 0.00 | 0.89 | 0.00 | 99 | 1014.8 |
| 20260507005044 | 7 | 0 | 0.0 | 0.0 | 0.00 | 0.89 | 0.00 | 99 | 1014.8 |
| 20260507004045 | 7 | 0 | 0.0 | 0.0 | 0.00 | 0.91 | 0.00 | 99 | 1014.8 |
| 20260507003044 | 7 | 0 | 0.0 | 0.0 | 0.00 | 0.94 | 0.00 | 10 | 1014.7 |
| 20260507002045 | 7 | 0 | 0.0 | 0.0 | 0.00 | 0.97 | 0.00 | 10 | 1014.7 |
| 20260507001044 | 7 | 0 | 0.0 | 0.0 | 0.00 | 0.99 | 0.00 | 10 | 1014.6 |
| 20260507000042 | 7 | 0 | 0.0 | 0.0 | 0.00 | 0.99 | 0.00 | 10 | 1014.5 |
| 20260506235048 | 7 | 0 | 0.0 | 0.0 | 0.00 | 1.04 | 0.00 | 10 | 1014.5 |
| 20260506234047 | 7 | 0 | 0.0 | 0.0 | 0.00 | 1.07 | 0.00 | 10 | 1014.5 |
| 20260506233047 | 7 | 0 | 0.0 | 0.0 | 0.00 | 1.09 | 0.00 | 10 | 1014.4 |
| 20260506232055 | 7 | 0 | 0.0 | 0.0 | 0.00 | 1.14 | 0.00 | 10 | 1014.3 |
| 20260506231047 | 7 | 0 | 0.0 | 0.0 | 0.00 | 1.17 | 0.00 | 10 | 1014.3 |
| 20260506225047 | 7 | 0 | 0.0 | 0.0 | 0.00 | 1.27 | 0.00 | 10 | 1014.2 |
| 20260506224049 | 7 | 0 | 0.0 | 0.0 | 0.00 | 1.30 | 0.00 | 10 | 1014.1 |
| 20260506223049 | 7 | 0 | 0.0 | 0.0 | 0.00 | 1.35 | 0.00 | 10 | 1014.0 |
| 20260506222048 | 7 | 0 | 0.0 | 0.0 | 0.00 | 1.37 | 0.00 | 10 | 1014.0 |
| 20260506221045 | 7 | 0 | 0.0 | 0.0 | 0.00 | 1.40 | 0.00 | 10 | 1013.8 |
| 20260506220056 | 7 | 0 | 0.0 | 0.0 | 0.00 | 1.42 | 0.00 | 10 | 1013.7 |
| 20260506215051 | 7 | 0 | 0.0 | 0.0 | 0.00 | 1.45 | 1.42 | 10 | 1013.7 |
| 20260506214050 | 7 | 0 | 0.0 | 0.0 | 0.00 | 1.45 | 1.42 | 10 | 1013.7 |
| 20260506213050 | 7 | 0 | 0.0 | 0.0 | 0.00 | 1.47 | 1.42 | 10 | 1013.6 |
| 20260506212051 | 7 | 0 | 0.0 | 0.0 | 0.00 | 1.52 | 1.42 | 10 | 1013.5 |
| 20260506211049 | 7 | 0 | 0.0 | 0.0 | 0.00 | 1.55 | 1.42 | 99 | 1013.3 |
| 20260506204049 | 7 | 0 | 0.0 | 0.0 | 0.00 | 1.63 | 1.42 | 97 | 1013.2 |
| 20260506203050 | 7 | 0 | 0.0 | 0.0 | 0.00 | 1.63 | 1.42 | 96 | 1013.2 |
| 20260506202051 | 7 | 0 | 0.0 | 0.0 | 0.00 | 1.65 | 1.42 | 96 | 1013.1 |
| 20260506201053 | 7 | 0 | 0.0 | 0.0 | 0.00 | 1.68 | 1.42 | 95 | 1012.9 |
| 20260506200050 | 8 | 0 | 0.0 | 0.0 | 0.00 | 1.73 | 1.42 | 94 | 1012.9 |
| 20260506195049 | 8 | 0 | 0.0 | 0.0 | 0.00 | 1.75 | 1.42 | 94 | 1012.8 |
| 20260506194049 | 8 | 0 | 0.0 | 0.0 | 0.00 | 1.75 | 1.42 | 94 | 1012.7 |
| 20260506193047 | 8 | 0 | 0.0 | 0.0 | 0.00 | 1.78 | 1.42 | 92 | 1012.6 |
| 20260506192048 | 8 | 0 | 0.0 | 0.0 | 0.00 | 1.80 | 1.42 | 92 | 1012.5 |
| 20260506190052 | 8 | 0 | 0.0 | 0.0 | 0.00 | 1.83 | 1.42 | 92 | 1012.4 |
| 20260506185048 | 8 | 0 | 0.0 | 0.0 | 0.00 | 1.88 | 1.42 | 92 | 1012.3 |
| 20260506184049 | 9 | 0 | 0.0 | 0.0 | 0.00 | 1.91 | 1.42 | 91 | 1012.2 |
| 20260506183048 | 9 | 0 | 0.0 | 0.0 | 0.00 | 1.93 | 1.42 | 89 | 1012.1 |
| 20260506182049 | 9 | 0 | 0.0 | 0.0 | 0.00 | 1.93 | 1.42 | 89 | 1011.9 |
| 20260506181047 | 10 | 0 | 0.0 | 0.0 | 0.00 | 1.96 | 1.42 | 89 | 1011.9 |
| 20260506180049 | 10 | 0 | 0.0 | 0.0 | 0.00 | 1.98 | 1.42 | 88 | 1011.6 |
| 20260506174048 | 10 | 0 | 0.0 | 0.0 | 0.00 | 2.01 | 1.42 | 88 | 1011.4 |
| 20260506173046 | 10 | 0 | 0.0 | 0.0 | 0.00 | 2.03 | 1.42 | 89 | 1011.2 |
| 20260506172048 | 10 | 0 | 0.0 | 0.0 | 0.00 | 2.03 | 1.42 | 88 | 1011.1 |
| 20260506171048 | 10 | 0 | 0.0 | 0.0 | 0.00 | 2.03 | 1.42 | 88 | 1011.0 |
| 20260506170045 | 10 | 0 | 0.0 | 0.0 | 0.00 | 2.03 | 1.42 | 89 | 1011.0 |
| 20260506163046 | 10 | 0 | 0.0 | 0.0 | 0.00 | 2.06 | 1.42 | 87 | 1010.9 |
| 20260506162048 | 10 | 0 | 0.0 | 0.0 | 0.00 | 2.06 | 1.42 | 89 | 1010.9 |
| 20260506161045 | 10 | 0 | 0.0 | 0.0 | 0.00 | 2.06 | 1.42 | 91 | 1011.0 |
| 20260506160049 | 10 | 0 | 0.0 | 0.0 | 0.00 | 2.06 | 1.42 | 91 | 1010.9 |
| 20260506155046 | 10 | 0 | 0.0 | 0.0 | 0.00 | 2.06 | 1.42 | 92 | 1010.8 |
| 20260506154052 | 10 | 0 | 0.0 | 0.0 | 0.00 | 2.06 | 1.42 | 92 | 1010.8 |
| 20260506153047 | 10 | 0 | 0.0 | 0.0 | 0.00 | 2.06 | 1.42 | 93 | 1010.8 |
| 20260506152047 | 10 | 0 | 0.0 | 0.0 | 0.00 | 2.06 | 1.42 | 97 | 1010.8 |
| 20260506151049 | 10 | 0 | 0.0 | 0.0 | 0.00 | 2.06 | 1.42 | 98 | 1010.7 |
| 20260506150047 | 9 | 0 | 0.0 | 0.0 | 0.00 | 2.06 | 1.42 | 98 | 1010.7 |
| 20260506145047 | 9 | 0 | 0.0 | 0.0 | 0.00 | 2.06 | 1.42 | 97 | 1010.6 |
| 20260506144045 | 9 | 0 | 0.0 | 0.0 | 0.00 | 2.06 | 1.42 | 97 | 1010.7 |
| 20260506143045 | 10 | 0 | 0.0 | 0.0 | 0.00 | 2.06 | 1.42 | 96 | 1010.7 |
| 20260506142045 | 10 | 0 | 0.0 | 0.0 | 0.00 | 2.06 | 1.42 | 94 | 1010.6 |
| 20260506141045 | 10 | 0 | 0.0 | 0.0 | 0.00 | 2.06 | 1.42 | 93 | 1010.4 |
| 20260506135047 | 10 | 0 | 0.0 | 0.0 | 0.00 | 2.06 | 1.42 | 93 | 1010.4 |
| 20260506134046 | 10 | 0 | 0.0 | 0.0 | 0.00 | 2.06 | 1.42 | 92 | 1010.4 |
| 20260506132046 | 10 | 0 | 0.0 | 0.0 | 0.00 | 2.08 | 1.42 | 95 | 1010.5 |
| 20260506130048 | 10 | 0 | 0.0 | 0.0 | 0.00 | 2.08 | 1.42 | 98 | 1010.4 |
| 20260506125046 | 10 | 0 | 0.0 | 0.0 | 0.00 | 2.08 | 1.42 | 98 | 1010.5 |
| 20260506124046 | 10 | 0 | 0.0 | 0.0 | 0.00 | 2.08 | 1.42 | 99 | 1010.4 |
| 20260506121046 | 9 | 0 | 0.0 | 0.0 | 0.03 | 2.08 | 1.42 | 10 | 1010.3 |
| 20260506114046 | 9 | 0 | 0.0 | 0.0 | 0.05 | 2.08 | 1.42 | 10 | 1010.1 |
| 20260506113047 | 9 | 0 | 0.0 | 0.0 | 0.05 | 2.08 | 1.42 | 10 | 1010.1 |
| 20260506112046 | 9 | 0 | 0.0 | 0.0 | 0.05 | 2.06 | 1.40 | 10 | 1010.1 |
| 20260506111047 | 8 | 0 | 0.0 | 0.0 | 0.05 | 2.06 | 1.40 | 10 | 1010.1 |
| 20260506105046 | 8 | 0 | 0.0 | 0.0 | 0.10 | 2.06 | 1.40 | 10 | 1010.1 |
| 20260506103047 | 8 | 0 | 0.0 | 0.0 | 0.10 | 2.03 | 1.37 | 10 | 1010.1 |
| 20260506102045 | 8 | 0 | 0.0 | 0.0 | 0.13 | 2.03 | 1.37 | 10 | 1010.0 |
| 20260506101045 | 8 | 0 | 0.0 | 0.0 | 0.15 | 2.01 | 1.35 | 10 | 1009.9 |
| 20260506100044 | 8 | 0 | 0.0 | 0.0 | 0.15 | 2.01 | 1.35 | 10 | 1009.9 |
| 20260506095047 | 8 | 0 | 0.0 | 0.0 | 0.15 | 1.98 | 1.32 | 10 | 1009.8 |
| 20260506093046 | 7 | 0 | 0.0 | 0.0 | 0.15 | 1.93 | 1.27 | 10 | 1009.7 |
| 20260506092045 | 7 | 0 | 0.0 | 0.0 | 0.15 | 1.93 | 1.27 | 10 | 1009.6 |
| 20260506091045 | 7 | 0 | 0.0 | 0.0 | 0.15 | 1.91 | 1.24 | 10 | 1009.6 |
| 20260506085045 | 7 | 0 | 0.0 | 0.0 | 0.13 | 1.85 | 1.19 | 10 | 1009.4 |
| 20260506084045 | 7 | 0 | 0.0 | 0.0 | 0.10 | 1.83 | 1.17 | 10 | 1009.4 |
| 20260506083043 | 7 | 0 | 0.0 | 0.0 | 0.08 | 1.80 | 1.14 | 10 | 1009.3 |
| 20260506082045 | 7 | 0 | 0.0 | 0.0 | 0.05 | 1.78 | 1.12 | 10 | 1009.2 |
| 20260506081046 | 7 | 0 | 0.0 | 0.0 | 0.05 | 1.78 | 1.12 | 10 | 1009.2 |
| 20260506073045 | 7 | 0 | 0.0 | 0.0 | 0.05 | 1.75 | 1.09 | 10 | 1009.0 |
| 20260506062044 | 7 | 0 | 0.0 | 0.0 | 0.10 | 1.68 | 1.02 | 10 | 1008.5 |
| 20260506061043 | 7 | 0 | 0.0 | 0.0 | 0.15 | 1.68 | 1.02 | 10 | 1008.5 |
| 20260506051044 | 7 | 0 | 0.0 | 0.0 | 0.10 | 1.57 | 0.91 | 10 | 1008.5 |
| 20260506045042 | 7 | 0 | 0.0 | 0.0 | 0.05 | 1.52 | 0.86 | 10 | 1008.5 |
| 20260506044044 | 7 | 0 | 0.0 | 0.0 | 0.05 | 1.50 | 0.84 | 10 | 1008.5 |
| 20260506042042 | 7 | 0 | 0.0 | 0.0 | 0.08 | 1.50 | 0.84 | 10 | 1008.4 |
| 20260506041043 | 7 | 0 | 0.0 | 0.0 | 0.08 | 1.47 | 0.81 | 10 | 1008.4 |
| 20260506035045 | 7 | 0 | 0.0 | 0.0 | 0.13 | 1.47 | 0.81 | 10 | 1008.4 |
| 20260506034045 | 7 | 0 | 0.0 | 0.0 | 0.13 | 1.45 | 0.79 | 10 | 1008.4 |
| 20260506033044 | 7 | 0 | 0.0 | 0.0 | 0.10 | 1.45 | 0.79 | 10 | 1008.5 |
| 20260506032043 | 7 | 0 | 0.0 | 0.0 | 0.15 | 1.45 | 0.79 | 10 | 1008.5 |
| 20260506031043 | 7 | 0 | 0.0 | 0.0 | 0.15 | 1.42 | 0.76 | 10 | 1008.5 |
| 20260506025043 | 7 | 0 | 0.0 | 0.0 | 0.13 | 1.37 | 0.71 | 10 | 1008.6 |
| 20260506024044 | 7 | 0 | 0.0 | 0.0 | 0.13 | 1.37 | 0.71 | 10 | 1008.6 |
| 20260506023045 | 7 | 0 | 0.0 | 0.0 | 0.10 | 1.35 | 0.69 | 10 | 1008.7 |
| 20260506022043 | 7 | 0 | 0.0 | 0.0 | 0.10 | 1.35 | 0.69 | 10 | 1008.7 |
| 20260506021045 | 7 | 0 | 0.0 | 0.0 | 0.08 | 1.30 | 0.64 | 10 | 1008.7 |
| 20260506020044 | 7 | 0 | 0.0 | 0.0 | 0.08 | 1.27 | 0.61 | 10 | 1008.8 |